COSMOS 2251 DEB, 33999

Orbit data source: Space-Track

COSMOS 2251 DEB, 33999 is space debris in LEO originally from a launch on Wed, 16 Jun 1993 UTC launched from the Plesetsk Missile And Space Complex (PKMTR). The debris from Iridium 33, an American commercial communications satellite, has been tracked extensively since its accidental collision with the defunct Russian satellite Cosmos 2251 in 2009. This event, occurring at high speed in low Earth orbit (LEO), generated thousands of pieces of space debris, significantly increasing the risk of further collisions. The Iridium 33 debris cloud has impacted space traffic management and orbital debris mitigation strategies, making it a subject of ongoing study in space situational awareness.

Loading next visibility...
Identifier
33999, 1993-036GJ
Orbit
LEO
Country
Flag of CISCIS
Related business
Manufacturer
Unknown
Mission
Spacecraft
Bus & Motor
Unknown
Mass
Unknown
Launch date (UTC)
1993-06-16 (32 years ago)
Launch vehicle
Unknown
Launch site
Plesetsk Missile And Space Complex (PKMTR)
Object type
Payload
Rocket body
Debris
Shape & HBR
Unknown shape, 0.1 m
Radar Cross Section
Small (<0.1 m²)

Expand to show TLE details & history
Last TLE update: 1 day ago

TLE from 1 day ago
0 COSMOS 2251 DEB
1 33999U 93036GJ  25300.48837864  .00011506  00000-0  14319-2 0  9995
2 33999  73.9200 322.9083 0046346 230.6959 129.0105 14.81810455885657
Epoch: 2025-10-27T11:43Z
TLE epoch observation values (Epoch: 2025-10-27T11:43:15.914Z)
Latitude
0.00002°
Longitude
111.0025°
Altitude
646.795 km
Speed
7.524 km/s
True Right ascension
21h 31m 37s
True Declination
0° 00' 00"
Sunlit
Object was in daylight at epoch
Visualization orbit readout
Latitude
Unknown
Longitude
Unknown
Altitude
Unknown
Speed
Unknown
Apparent Right ascension
Unknown
Apparent Declination
Unknown
Sunlit
N/A
Visualization observer readout
Local Sidereal Time
08:37:02
Azimuth
Unknown
Elevation
Unknown
Doppler factor
Unknown
Orbital elements
Apogee altitude
653.638 km
Perigee altitude
588.76 km
Semi-major axis
6,999.336 km
Eccentricity
0.00463
Inclination
73.92°
RAAN
322.9083°
Arg. of periapsis
230.6959°
True anomaly
129.42167°
Mean anomaly
129.0105°
Eccentric anomaly
129.21623°
Mean motion
3.70645 °/min
Orbital period
97.13 mins
BSTAR
0.0014319

Documentation

Showing up to 5 results
|